GIA1103 WAAA-WIMM

Flight info

Callsign GIA1103
Flight time 3h 0m
Altitude 34000
Route GURN1A GURNI W35 BDM LAMUD EGAVO JATAM A585 PKU W12 MEDIA
Aircraft B77W/H-SDE1E2E3FGHIJ2J3J4J5M1RWXY/LB1D1

Departure

Time 2026-04-24 06:58
Airport Sultan Hasanuddin International Airport (WAAA)

Arrival

Time 2026-04-24 09:58
Airport Kualanamu International Airport (WIMM)
Time Latitude Longitude Altitude Speed Heading
2026-04-24 06:51 -5.08903 119.54391 61 ft 4 kts 210°
2026-04-24 06:51 -5.08945 119.54366 61 ft 10 kts 210°
2026-04-24 06:52 -5.09010 119.54329 61 ft 9 kts 210°
2026-04-24 06:52 -5.09040 119.54311 61 ft 0 kts 210°
2026-04-24 06:52 -5.09042 119.54310 61 ft 2 kts 210°
2026-04-24 06:52 -5.09081 119.54289 61 ft 9 kts 202°
2026-04-24 06:53 -5.09128 119.54285 61 ft 6 kts 165°
2026-04-24 06:53 -5.09140 119.54290 61 ft 0 kts 150°
2026-04-24 06:54 -5.09141 119.54291 61 ft 1 kts 148°
2026-04-24 06:54 -5.09169 119.54324 61 ft 13 kts 124°
2026-04-24 06:55 -5.09205 119.54402 61 ft 12 kts 86°
2026-04-24 06:55 -5.09166 119.54442 61 ft 0 kts 30°
2026-04-24 06:57 -5.09117 119.54471 61 ft 24 kts 30°
2026-04-24 06:57 -5.08688 119.54720 61 ft 112 kts 30°
2026-04-24 06:57 -5.08056 119.55088 61 ft 168 kts 29°
2026-04-24 06:57 -5.06784 119.55818 266 ft 211 kts 28°
2026-04-24 06:58 -5.05477 119.56570 1030 ft 218 kts 24°
2026-04-24 06:58 -5.04020 119.56916 1975 ft 217 kts 359°
2026-04-24 06:58 -5.02531 119.56656 2753 ft 222 kts 348°
2026-04-24 06:58 -5.00951 119.56334 3136 ft 242 kts 352°
2026-04-24 06:59 -4.99268 119.56039 3609 ft 258 kts 353°
2026-04-24 06:59 -4.97121 119.55683 4399 ft 270 kts 353°
2026-04-24 06:59 -4.95420 119.55403 5169 ft 273 kts 352°
2026-04-24 06:59 -4.93539 119.55093 6030 ft 275 kts 352°
2026-04-24 07:00 -4.91624 119.54777 6837 ft 280 kts 352°
2026-04-24 07:00 -4.89716 119.54460 7609 ft 283 kts 352°
2026-04-24 07:00 -4.87735 119.54131 8377 ft 287 kts 352°
2026-04-24 07:00 -4.85751 119.53803 9100 ft 291 kts 352°
2026-04-24 07:01 -4.83771 119.53295 9747 ft 297 kts 336°
2026-04-24 07:01 -4.82111 119.52078 10333 ft 307 kts 313°
2026-04-24 07:01 -4.80834 119.50153 10689 ft 326 kts 298°
2026-04-24 07:01 -4.79889 119.48033 11006 ft 346 kts 293°
2026-04-24 07:02 -4.79000 119.45727 11304 ft 365 kts 291°
2026-04-24 07:02 -4.78137 119.43272 11684 ft 381 kts 290°
2026-04-24 07:02 -4.77302 119.40862 12153 ft 392 kts 290°
2026-04-24 07:02 -4.76330 119.38112 12791 ft 401 kts 290°
2026-04-24 07:03 -4.75372 119.35449 13449 ft 407 kts 290°
2026-04-24 07:03 -4.74402 119.32781 14113 ft 412 kts 290°
2026-04-24 07:03 -4.73411 119.30068 14765 ft 417 kts 290°
2026-04-24 07:03 -4.72706 119.28144 15228 ft 419 kts 290°
2026-04-24 07:04 -4.71624 119.25198 15905 ft 424 kts 290°
2026-04-24 07:04 -4.70544 119.22260 16551 ft 428 kts 290°
2026-04-24 07:04 -4.69512 119.19450 17141 ft 432 kts 290°
2026-04-24 07:04 -4.68471 119.16613 17717 ft 435 kts 291°
2026-04-24 07:05 -4.67420 119.13753 18274 ft 438 kts 291°
2026-04-24 07:05 -4.66321 119.10767 18836 ft 442 kts 291°
2026-04-24 07:05 -4.65288 119.07959 19336 ft 445 kts 291°
2026-04-24 07:05 -4.64199 119.04999 19797 ft 450 kts 291°
2026-04-24 07:06 -4.63129 119.02086 20253 ft 453 kts 291°
2026-04-24 07:06 -4.62022 118.99078 20712 ft 457 kts 291°
2026-04-24 07:06 -4.60918 118.96081 21148 ft 460 kts 291°
2026-04-24 07:06 -4.59773 118.92973 21614 ft 463 kts 291°
2026-04-24 07:07 -4.58666 118.89970 22019 ft 466 kts 291°
2026-04-24 07:07 -4.57540 118.86916 22414 ft 470 kts 291°
2026-04-24 07:07 -4.55241 118.80679 23149 ft 477 kts 291°
2026-04-24 07:08 -4.54089 118.77557 23518 ft 480 kts 291°
2026-04-24 07:08 -4.52927 118.74403 23872 ft 483 kts 291°
2026-04-24 07:08 -4.51854 118.71489 24187 ft 486 kts 291°
2026-04-24 07:08 -4.50532 118.67892 24564 ft 489 kts 291°
2026-04-24 07:09 -4.49392 118.64789 24876 ft 492 kts 291°
2026-04-24 07:09 -4.48207 118.61567 25196 ft 494 kts 291°
2026-04-24 07:09 -4.47014 118.58327 25526 ft 496 kts 291°
2026-04-24 07:09 -4.45813 118.55065 25824 ft 499 kts 291°
2026-04-24 07:10 -4.44592 118.51750 26131 ft 501 kts 291°
2026-04-24 07:10 -4.43382 118.48465 26426 ft 504 kts 291°
2026-04-24 07:10 -4.42168 118.45170 26714 ft 506 kts 291°
2026-04-24 07:10 -4.40929 118.41807 26998 ft 508 kts 291°
2026-04-24 07:11 -4.39683 118.38422 27278 ft 510 kts 290°
2026-04-24 07:11 -4.38439 118.35037 27563 ft 512 kts 291°
2026-04-24 07:11 -4.37217 118.31716 27826 ft 514 kts 291°
2026-04-24 07:11 -4.35976 118.28342 28072 ft 516 kts 291°
2026-04-24 07:12 -4.34711 118.24904 28319 ft 518 kts 291°
2026-04-24 07:12 -4.33885 118.22659 28474 ft 520 kts 291°
2026-04-24 07:12 -4.32547 118.19023 28718 ft 522 kts 291°
2026-04-24 07:12 -4.31257 118.15515 28943 ft 523 kts 290°
2026-04-24 07:13 -4.29993 118.12081 29149 ft 525 kts 290°
2026-04-24 07:13 -4.28727 118.08640 29392 ft 526 kts 291°
2026-04-24 07:13 -4.27464 118.05202 29718 ft 525 kts 290°
2026-04-24 07:13 -4.26153 118.01631 30043 ft 524 kts 290°
2026-04-24 07:14 -4.24790 117.97923 30366 ft 524 kts 290°
2026-04-24 07:14 -4.23545 117.94538 30667 ft 523 kts 290°
2026-04-24 07:14 -4.22285 117.91115 30968 ft 523 kts 290°
2026-04-24 07:14 -4.21013 117.87659 31285 ft 522 kts 290°
2026-04-24 07:15 -4.19780 117.84308 31568 ft 521 kts 290°
2026-04-24 07:15 -4.18418 117.80611 31890 ft 521 kts 290°
2026-04-24 07:15 -4.17196 117.77293 32174 ft 520 kts 290°
2026-04-24 07:15 -4.15946 117.73900 32449 ft 520 kts 290°
2026-04-24 07:16 -4.14693 117.70498 32744 ft 519 kts 290°
2026-04-24 07:16 -4.13439 117.67095 33035 ft 519 kts 290°
2026-04-24 07:16 -4.12176 117.63665 33330 ft 518 kts 290°
2026-04-24 07:16 -4.10930 117.60286 33611 ft 517 kts 290°
2026-04-24 07:17 -4.09680 117.56892 33770 ft 518 kts 290°
2026-04-24 07:17 -4.08433 117.53504 33766 ft 518 kts 290°
2026-04-24 07:17 -4.06456 117.48138 33765 ft 517 kts 290°
2026-04-24 07:18 -4.03946 117.41334 33767 ft 517 kts 290°
2026-04-24 07:18 -4.01544 117.34825 33762 ft 517 kts 290°
2026-04-24 07:19 -3.98788 117.27361 33762 ft 517 kts 289°
2026-04-24 07:19 -3.96770 117.20544 33763 ft 517 kts 283°
2026-04-24 07:20 -3.95290 117.13456 33761 ft 516 kts 280°
2026-04-24 07:20 -3.93926 117.06490 33762 ft 516 kts 281°
2026-04-24 07:21 -3.92433 116.99333 33762 ft 517 kts 281°
2026-04-24 07:21 -3.90932 116.92285 33760 ft 517 kts 281°
2026-04-24 07:22 -3.89685 116.86437 33760 ft 516 kts 281°
2026-04-24 07:22 -3.88151 116.79269 33760 ft 516 kts 281°
2026-04-24 07:23 -3.86389 116.71047 33760 ft 516 kts 281°
2026-04-24 07:23 -3.85139 116.65222 33759 ft 516 kts 281°
2026-04-24 07:24 -3.83628 116.58187 33759 ft 516 kts 281°
2026-04-24 07:24 -3.82100 116.51070 33758 ft 516 kts 281°
2026-04-24 07:25 -3.80588 116.44038 33758 ft 516 kts 281°
2026-04-24 07:25 -3.79077 116.37008 33759 ft 516 kts 281°
2026-04-24 07:26 -3.77566 116.29981 33758 ft 516 kts 281°
2026-04-24 07:26 -3.75990 116.22658 33758 ft 516 kts 281°
2026-04-24 07:27 -3.74353 116.15053 33758 ft 516 kts 281°
2026-04-24 07:27 -3.73125 116.09352 33758 ft 516 kts 281°
2026-04-24 07:28 -3.71857 116.03466 33758 ft 516 kts 281°
2026-04-24 07:28 -3.70322 115.96343 33757 ft 516 kts 281°
2026-04-24 07:29 -3.68807 115.89315 33758 ft 516 kts 281°
2026-04-24 07:29 -3.67253 115.82111 33758 ft 515 kts 281°
2026-04-24 07:30 -3.65746 115.75122 33757 ft 515 kts 281°
2026-04-24 07:30 -3.64209 115.68005 33758 ft 516 kts 281°
2026-04-24 07:31 -3.62695 115.60990 33758 ft 516 kts 281°
2026-04-24 07:31 -3.61178 115.53968 33757 ft 516 kts 281°
2026-04-24 07:32 -3.59662 115.46951 33757 ft 516 kts 281°
2026-04-24 07:32 -3.58142 115.39922 33758 ft 516 kts 281°
2026-04-24 07:33 -3.56624 115.32903 33758 ft 516 kts 281°
2026-04-24 07:33 -3.55075 115.25740 33757 ft 516 kts 281°
2026-04-24 07:34 -3.53556 115.18725 33758 ft 516 kts 281°
2026-04-24 07:34 -3.52016 115.11609 33758 ft 516 kts 281°
2026-04-24 07:35 -3.50492 115.04571 33757 ft 516 kts 281°
2026-04-24 07:35 -3.48931 114.97355 33757 ft 515 kts 281°
2026-04-24 07:36 -3.47412 114.90347 33758 ft 515 kts 281°
2026-04-24 07:36 -3.45945 114.83588 33757 ft 515 kts 281°
2026-04-24 07:37 -3.44355 114.76263 33757 ft 515 kts 281°
2026-04-24 07:37 -3.43111 114.70382 33758 ft 515 kts 279°
2026-04-24 07:38 -3.41952 114.63282 33757 ft 515 kts 277°
2026-04-24 07:38 -3.40866 114.56102 33758 ft 515 kts 278°
2026-04-24 07:39 -3.39682 114.48658 33758 ft 515 kts 278°
2026-04-24 07:39 -3.38534 114.41565 33757 ft 515 kts 278°
2026-04-24 07:40 -3.37379 114.34438 33757 ft 515 kts 278°
2026-04-24 07:40 -3.36159 114.26925 33758 ft 515 kts 278°
2026-04-24 07:41 -3.35178 114.20899 33757 ft 515 kts 278°
2026-04-24 07:41 -3.34036 114.13890 33758 ft 515 kts 278°
2026-04-24 07:42 -3.32863 114.06693 33758 ft 516 kts 278°
2026-04-24 07:42 -3.31705 113.99593 33757 ft 517 kts 278°
2026-04-24 07:43 -3.30537 113.92438 33758 ft 516 kts 278°
2026-04-24 07:43 -3.29379 113.85346 33758 ft 517 kts 278°
2026-04-24 07:44 -3.28202 113.78144 33757 ft 517 kts 278°
2026-04-24 07:44 -3.27035 113.71002 33757 ft 517 kts 278°
2026-04-24 07:45 -3.25866 113.63850 33758 ft 517 kts 278°
2026-04-24 07:45 -3.24703 113.56744 33758 ft 517 kts 278°
2026-04-24 07:46 -3.23524 113.49539 33757 ft 517 kts 278°
2026-04-24 07:46 -3.22360 113.42431 33758 ft 517 kts 278°
2026-04-24 07:47 -3.21182 113.35235 33758 ft 517 kts 278°
2026-04-24 07:47 -3.20018 113.28134 33757 ft 517 kts 278°
2026-04-24 07:48 -3.19057 113.22275 33758 ft 517 kts 278°
2026-04-24 07:48 -3.17927 113.15380 33757 ft 517 kts 278°
2026-04-24 07:49 -3.16763 113.08286 33758 ft 517 kts 278°
2026-04-24 07:49 -3.15589 113.01136 33758 ft 516 kts 278°
2026-04-24 07:50 -3.14417 112.94001 33757 ft 516 kts 278°
2026-04-24 07:50 -3.13252 112.86906 33757 ft 516 kts 278°
2026-04-24 07:51 -3.12278 112.80980 33757 ft 516 kts 278°
2026-04-24 07:51 -3.11017 112.73314 33757 ft 516 kts 278°
2026-04-24 07:52 -3.09757 112.65653 33757 ft 514 kts 278°
2026-04-24 07:52 -3.08590 112.58550 33758 ft 514 kts 278°
2026-04-24 07:53 -3.07600 112.52532 33757 ft 514 kts 278°
2026-04-24 07:53 -3.06380 112.45127 33758 ft 514 kts 278°
2026-04-24 07:54 -3.05211 112.38040 33758 ft 513 kts 278°
2026-04-24 07:54 -3.04039 112.30933 33758 ft 516 kts 279°
2026-04-24 07:55 -3.02824 112.24441 33759 ft 516 kts 281°
2026-04-24 07:55 -3.01329 112.17444 33757 ft 512 kts 281°
2026-04-24 07:56 -2.99913 112.10651 33758 ft 514 kts 282°
2026-04-24 07:56 -2.98402 112.03341 33758 ft 516 kts 281°
2026-04-24 07:57 -2.96958 111.96307 33758 ft 513 kts 280°
2026-04-24 07:57 -2.95533 111.89323 33757 ft 513 kts 280°
2026-04-24 07:58 -2.94366 111.83613 33757 ft 513 kts 280°
2026-04-24 07:58 -2.92910 111.76499 33757 ft 513 kts 280°
2026-04-24 07:59 -2.91477 111.69499 33758 ft 513 kts 280°
2026-04-24 07:59 -2.90035 111.62458 33758 ft 513 kts 280°
2026-04-24 08:00 -2.88594 111.55422 33757 ft 513 kts 280°
2026-04-24 08:00 -2.87159 111.48423 33758 ft 513 kts 280°
2026-04-24 08:01 -2.85726 111.41431 33758 ft 513 kts 280°
2026-04-24 08:01 -2.84291 111.34434 33757 ft 513 kts 280°
2026-04-24 08:02 -2.82858 111.27446 33758 ft 513 kts 280°
2026-04-24 08:02 -2.81398 111.20334 33758 ft 513 kts 280°
2026-04-24 08:03 -2.79935 111.13206 33757 ft 513 kts 281°
2026-04-24 08:03 -2.78496 111.06200 33758 ft 513 kts 280°
2026-04-24 08:04 -2.77058 110.99199 33758 ft 513 kts 280°
2026-04-24 08:04 -2.75602 110.92111 33757 ft 512 kts 280°
2026-04-24 08:05 -2.74166 110.85126 33757 ft 513 kts 281°
2026-04-24 08:05 -2.72964 110.79274 33757 ft 513 kts 281°
2026-04-24 08:06 -2.71415 110.71743 33758 ft 513 kts 281°
2026-04-24 08:06 -2.69849 110.64135 33758 ft 514 kts 281°
2026-04-24 08:07 -2.68592 110.58027 33759 ft 513 kts 281°
2026-04-24 08:07 -2.67147 110.51006 33758 ft 512 kts 281°
2026-04-24 08:08 -2.65960 110.45238 33759 ft 513 kts 281°
2026-04-24 08:09 -2.63793 110.34714 33732 ft 514 kts 281°
2026-04-24 08:09 -2.62303 110.27485 33731 ft 513 kts 281°
2026-04-24 08:10 -2.61046 110.21386 33732 ft 513 kts 281°
2026-04-24 08:10 -2.59594 110.14345 33732 ft 514 kts 281°
2026-04-24 08:11 -2.58102 110.07108 33732 ft 513 kts 281°
2026-04-24 08:11 -2.56650 110.00070 33732 ft 513 kts 281°
2026-04-24 08:12 -2.55195 109.93018 33733 ft 513 kts 281°
2026-04-24 08:12 -2.53753 109.86030 33733 ft 513 kts 281°
2026-04-24 08:13 -2.52288 109.78938 33733 ft 513 kts 281°
2026-04-24 08:13 -2.50843 109.71938 33734 ft 513 kts 281°
2026-04-24 08:14 -2.49356 109.64742 33735 ft 513 kts 281°
2026-04-24 08:14 -2.47951 109.57938 33735 ft 513 kts 281°
2026-04-24 08:15 -2.46506 109.50950 33736 ft 513 kts 281°
2026-04-24 08:15 -2.45041 109.43862 33738 ft 513 kts 281°
2026-04-24 08:16 -2.43577 109.36784 33740 ft 512 kts 281°
2026-04-24 08:16 -2.42145 109.29860 33740 ft 512 kts 281°
2026-04-24 08:17 -2.40934 109.24009 33742 ft 512 kts 281°
2026-04-24 08:17 -2.39248 109.15862 33746 ft 512 kts 281°
2026-04-24 08:18 -2.37804 109.08888 33746 ft 512 kts 281°
2026-04-24 08:18 -2.36684 109.03477 33746 ft 512 kts 281°
2026-04-24 08:19 -2.35462 108.97578 33747 ft 512 kts 281°
2026-04-24 08:19 -2.34022 108.90624 33752 ft 512 kts 281°
2026-04-24 08:20 -2.32577 108.83653 33754 ft 512 kts 281°
2026-04-24 08:20 -2.31113 108.76590 33755 ft 511 kts 281°
2026-04-24 08:21 -2.29652 108.69541 33761 ft 511 kts 281°
2026-04-24 08:21 -2.28188 108.62478 33763 ft 511 kts 281°
2026-04-24 08:22 -2.26782 108.55704 33765 ft 512 kts 281°
2026-04-24 08:22 -2.25275 108.48438 33772 ft 512 kts 281°
2026-04-24 08:23 -2.23820 108.41426 33775 ft 512 kts 281°
2026-04-24 08:23 -2.22323 108.34208 33777 ft 512 kts 281°
2026-04-24 08:24 -2.20855 108.27139 33778 ft 512 kts 281°
2026-04-24 08:24 -2.19376 108.20017 33780 ft 512 kts 281°
2026-04-24 08:25 -2.18172 108.14223 33780 ft 512 kts 281°
2026-04-24 08:25 -2.16721 108.07244 33780 ft 512 kts 281°
2026-04-24 08:26 -2.15225 108.00139 33782 ft 512 kts 281°
2026-04-24 08:26 -2.13757 107.93161 33782 ft 512 kts 281°
2026-04-24 08:27 -2.12252 107.86006 33783 ft 512 kts 281°
2026-04-24 08:27 -2.10787 107.79035 33783 ft 512 kts 281°
2026-04-24 08:28 -2.09208 107.71519 33783 ft 511 kts 281°
2026-04-24 08:28 -2.08078 107.66137 33783 ft 511 kts 281°
2026-04-24 08:29 -2.06606 107.59131 33784 ft 511 kts 281°
2026-04-24 08:29 -2.05370 107.53250 33783 ft 511 kts 281°
2026-04-24 08:30 -2.03908 107.46297 33784 ft 511 kts 281°
2026-04-24 08:30 -2.02393 107.39097 33784 ft 511 kts 281°
2026-04-24 08:31 -2.00892 107.31964 33783 ft 511 kts 281°
2026-04-24 08:31 -1.99418 107.24961 33783 ft 511 kts 281°
2026-04-24 08:32 -1.97954 107.18006 33784 ft 511 kts 281°
2026-04-24 08:32 -1.96492 107.11060 33783 ft 511 kts 281°
2026-04-24 08:33 -1.95028 107.04111 33784 ft 510 kts 281°
2026-04-24 08:33 -1.93606 106.97360 33785 ft 510 kts 281°
2026-04-24 08:34 -1.92089 106.90157 33785 ft 508 kts 281°
2026-04-24 08:34 -1.90635 106.83259 33786 ft 507 kts 281°
2026-04-24 08:35 -1.89178 106.76347 33787 ft 507 kts 281°
2026-04-24 08:35 -1.87706 106.69362 33787 ft 506 kts 281°
2026-04-24 08:36 -1.86256 106.62488 33787 ft 505 kts 281°
2026-04-24 08:36 -1.84834 106.55742 33787 ft 506 kts 281°
2026-04-24 08:37 -1.83344 106.48681 33788 ft 506 kts 281°
2026-04-24 08:37 -1.81893 106.41802 33787 ft 505 kts 281°
2026-04-24 08:38 -1.80646 106.35896 33788 ft 506 kts 281°
2026-04-24 08:38 -1.79504 106.30484 33787 ft 506 kts 281°
2026-04-24 08:39 -1.78041 106.23551 33788 ft 506 kts 281°
2026-04-24 08:39 -1.76593 106.16695 33787 ft 506 kts 281°
2026-04-24 08:40 -1.75112 106.09682 33787 ft 506 kts 281°
2026-04-24 08:40 -1.73655 106.02783 33788 ft 507 kts 281°
2026-04-24 08:41 -1.72190 105.95848 33787 ft 507 kts 281°
2026-04-24 08:41 -1.70718 105.88880 33787 ft 507 kts 281°
2026-04-24 08:42 -1.69274 105.82047 33787 ft 507 kts 281°
2026-04-24 08:42 -1.67736 105.74774 33787 ft 507 kts 281°
2026-04-24 08:43 -1.66277 105.67872 33788 ft 507 kts 281°
2026-04-24 08:43 -1.64987 105.61772 33787 ft 507 kts 281°
2026-04-24 08:44 -1.63528 105.54870 33788 ft 507 kts 281°
2026-04-24 08:44 -1.62086 105.48056 33787 ft 507 kts 281°
2026-04-24 08:45 -1.60525 105.40679 33787 ft 507 kts 281°
2026-04-24 08:45 -1.59064 105.33773 33787 ft 508 kts 281°
2026-04-24 08:46 -1.57544 105.26589 33788 ft 508 kts 281°
2026-04-24 08:46 -1.56042 105.19494 33788 ft 508 kts 281°
2026-04-24 08:47 -1.54580 105.12587 33787 ft 508 kts 281°
2026-04-24 08:47 -1.53111 105.05652 33787 ft 508 kts 281°
2026-04-24 08:48 -1.51895 104.99912 33787 ft 508 kts 281°
2026-04-24 08:48 -1.50341 104.92574 33787 ft 508 kts 281°
2026-04-24 08:49 -1.48878 104.85667 33787 ft 508 kts 281°
2026-04-24 08:49 -1.47650 104.79873 33787 ft 508 kts 281°
2026-04-24 08:50 -1.46186 104.72962 33787 ft 508 kts 281°
2026-04-24 08:50 -1.44708 104.65988 33938 ft 511 kts 281°
2026-04-24 08:50 -1.43983 104.62570 34325 ft 508 kts 281°
2026-04-24 08:51 -1.43254 104.59132 34773 ft 504 kts 281°
2026-04-24 08:51 -1.42521 104.55671 35146 ft 502 kts 281°
2026-04-24 08:51 -1.41797 104.52255 35445 ft 501 kts 281°
2026-04-24 08:51 -1.41075 104.48852 35741 ft 500 kts 281°
2026-04-24 08:52 -1.40354 104.45450 35798 ft 500 kts 281°
2026-04-24 08:52 -1.38894 104.38569 35787 ft 499 kts 281°
2026-04-24 08:53 -1.37454 104.31775 35787 ft 499 kts 281°
2026-04-24 08:53 -1.36006 104.24953 35787 ft 499 kts 281°
2026-04-24 08:54 -1.34556 104.18116 35787 ft 499 kts 281°
2026-04-24 08:54 -1.33105 104.11277 35787 ft 499 kts 281°
2026-04-24 08:55 -1.31666 104.04497 35786 ft 499 kts 281°
2026-04-24 08:55 -1.30215 103.97665 35786 ft 498 kts 281°
2026-04-24 08:56 -1.28778 103.90894 35787 ft 498 kts 281°
2026-04-24 08:56 -1.27335 103.84099 35787 ft 499 kts 281°
2026-04-24 08:57 -1.25893 103.77303 35784 ft 499 kts 281°
2026-04-24 08:57 -1.24423 103.70383 35783 ft 498 kts 281°
2026-04-24 08:58 -1.23118 103.64237 35785 ft 499 kts 281°
2026-04-24 08:58 -1.22066 103.59287 35781 ft 498 kts 281°
2026-04-24 08:59 -1.20600 103.52384 35775 ft 497 kts 281°
2026-04-24 08:59 -1.19097 103.45309 35778 ft 497 kts 281°
2026-04-24 09:00 -1.17660 103.38549 35777 ft 497 kts 281°
2026-04-24 09:00 -1.16206 103.31705 35769 ft 497 kts 281°
2026-04-24 09:01 -1.14767 103.24934 35768 ft 497 kts 281°
2026-04-24 09:01 -1.13322 103.18135 35772 ft 497 kts 281°
2026-04-24 09:02 -1.11885 103.11373 35770 ft 497 kts 281°
2026-04-24 09:02 -1.10455 103.04648 35758 ft 497 kts 281°
2026-04-24 09:03 -1.09007 102.97838 35760 ft 497 kts 281°
2026-04-24 09:03 -1.07357 102.91088 35763 ft 497 kts 289°
2026-04-24 09:03 -1.05887 102.87961 35756 ft 499 kts 300°
2026-04-24 09:04 -1.03828 102.85164 35738 ft 500 kts 311°
2026-04-24 09:04 -0.98646 102.80453 35731 ft 502 kts 319°
2026-04-24 09:05 -0.93381 102.75859 35735 ft 502 kts 317°
2026-04-24 09:05 -0.88221 102.71020 35737 ft 502 kts 315°
2026-04-24 09:06 -0.83205 102.66157 35723 ft 502 kts 315°
2026-04-24 09:06 -0.78163 102.61262 35711 ft 501 kts 315°
2026-04-24 09:07 -0.73159 102.56405 35711 ft 501 kts 315°
2026-04-24 09:07 -0.66417 102.49865 35707 ft 501 kts 315°
2026-04-24 09:08 -0.61477 102.45073 35705 ft 501 kts 315°
2026-04-24 09:08 -0.56861 102.40596 35703 ft 501 kts 315°
2026-04-24 09:09 -0.51823 102.35709 35700 ft 501 kts 315°
2026-04-24 09:09 -0.46717 102.30756 35699 ft 501 kts 315°
2026-04-24 09:10 -0.41513 102.25708 35699 ft 501 kts 315°
2026-04-24 09:10 -0.36473 102.20820 35699 ft 501 kts 315°
2026-04-24 09:11 -0.32183 102.16659 35700 ft 501 kts 315°
2026-04-24 09:11 -0.26735 102.11375 35701 ft 501 kts 315°
2026-04-24 09:12 -0.21629 102.06422 35700 ft 501 kts 315°
2026-04-24 09:12 -0.16528 102.01475 35701 ft 501 kts 315°
2026-04-24 09:13 -0.12197 101.97275 35701 ft 501 kts 315°
2026-04-24 09:13 -0.07163 101.92392 35702 ft 501 kts 315°
2026-04-24 09:14 -0.02126 101.87506 35701 ft 501 kts 315°
2026-04-24 09:14 0.02979 101.82555 35700 ft 501 kts 315°
2026-04-24 09:15 0.07983 101.77702 35700 ft 501 kts 315°
2026-04-24 09:15 0.13016 101.72820 35700 ft 501 kts 315°
2026-04-24 09:16 0.18053 101.67935 35699 ft 501 kts 315°
2026-04-24 09:16 0.23019 101.63117 35698 ft 500 kts 315°
2026-04-24 09:17 0.28050 101.58237 35699 ft 500 kts 315°
2026-04-24 09:17 0.33112 101.53327 35699 ft 500 kts 315°
2026-04-24 09:18 0.38109 101.48479 35699 ft 500 kts 315°
2026-04-24 09:18 0.42007 101.44699 35699 ft 500 kts 315°
2026-04-24 09:19 0.47085 101.39911 35699 ft 500 kts 317°
2026-04-24 09:19 0.52271 101.35211 35698 ft 500 kts 317°
2026-04-24 09:20 0.57413 101.30516 35698 ft 501 kts 317°
2026-04-24 09:20 0.62623 101.25739 35698 ft 501 kts 317°
2026-04-24 09:21 0.67789 101.20999 35699 ft 501 kts 317°
2026-04-24 09:21 0.73025 101.16190 35699 ft 501 kts 317°
2026-04-24 09:22 0.77310 101.12257 35699 ft 502 kts 317°
2026-04-24 09:22 0.82496 101.07492 35699 ft 502 kts 317°
2026-04-24 09:23 0.87675 101.02736 35699 ft 502 kts 317°
2026-04-24 09:23 0.92845 100.97986 35705 ft 499 kts 318°
2026-04-24 09:24 0.97946 100.93302 35705 ft 495 kts 318°
2026-04-24 09:24 1.02965 100.88692 35704 ft 498 kts 318°
2026-04-24 09:25 1.08572 100.83541 35707 ft 500 kts 318°
2026-04-24 09:25 1.13694 100.78836 35706 ft 497 kts 318°
2026-04-24 09:26 1.18833 100.74114 35706 ft 496 kts 318°
2026-04-24 09:26 1.24021 100.69347 35706 ft 497 kts 318°
2026-04-24 09:27 1.28104 100.65596 35707 ft 497 kts 318°
2026-04-24 09:27 1.33449 100.60685 35705 ft 503 kts 318°
2026-04-24 09:28 1.38596 100.55955 35706 ft 508 kts 318°
2026-04-24 09:28 1.42841 100.52054 35715 ft 510 kts 318°
2026-04-24 09:29 1.48025 100.47289 35717 ft 509 kts 318°
2026-04-24 09:29 1.53282 100.42458 35718 ft 509 kts 318°
2026-04-24 09:30 1.59350 100.36880 35718 ft 510 kts 318°
2026-04-24 09:30 1.63701 100.32879 35606 ft 502 kts 318°
2026-04-24 09:31 1.66255 100.30532 35187 ft 495 kts 318°
2026-04-24 09:31 1.68787 100.28203 34321 ft 499 kts 318°
2026-04-24 09:31 1.71357 100.25841 33474 ft 503 kts 318°
2026-04-24 09:31 1.73932 100.23475 32997 ft 499 kts 318°
2026-04-24 09:32 1.76427 100.21180 32803 ft 489 kts 318°
2026-04-24 09:32 1.78949 100.18862 32236 ft 487 kts 318°
2026-04-24 09:32 1.81422 100.16587 31573 ft 487 kts 318°
2026-04-24 09:32 1.83926 100.14283 30975 ft 491 kts 318°
2026-04-24 09:33 1.86475 100.11939 30468 ft 494 kts 318°
2026-04-24 09:33 1.89232 100.09403 30052 ft 494 kts 318°
2026-04-24 09:33 1.91740 100.07096 29742 ft 492 kts 318°
2026-04-24 09:33 1.94249 100.04789 29451 ft 491 kts 317°
2026-04-24 09:34 1.96771 100.02490 29093 ft 487 kts 318°
2026-04-24 09:34 1.99326 100.00232 28570 ft 483 kts 319°
2026-04-24 09:34 2.01881 99.97986 28030 ft 480 kts 319°
2026-04-24 09:34 2.04341 99.95812 27503 ft 476 kts 319°
2026-04-24 09:35 2.06844 99.93594 26967 ft 473 kts 318°
2026-04-24 09:35 2.09294 99.91418 26446 ft 470 kts 318°
2026-04-24 09:35 2.11768 99.89221 25917 ft 466 kts 318°
2026-04-24 09:35 2.14186 99.87072 25402 ft 463 kts 318°
2026-04-24 09:36 2.16580 99.84943 24892 ft 459 kts 318°
2026-04-24 09:36 2.18998 99.82794 24374 ft 456 kts 318°
2026-04-24 09:36 2.21231 99.80808 23895 ft 453 kts 318°
2026-04-24 09:36 2.23767 99.78555 23348 ft 449 kts 318°
2026-04-24 09:37 2.26095 99.76487 22843 ft 446 kts 318°
2026-04-24 09:37 2.28435 99.74404 22477 ft 441 kts 318°
2026-04-24 09:37 2.30715 99.72381 22157 ft 436 kts 318°
2026-04-24 09:37 2.32212 99.71051 21945 ft 434 kts 318°
2026-04-24 09:38 2.35236 99.68365 21518 ft 435 kts 318°
2026-04-24 09:38 2.37492 99.66360 21202 ft 432 kts 318°
2026-04-24 09:38 2.38934 99.65079 20999 ft 431 kts 318°
2026-04-24 09:38 2.40382 99.63792 20795 ft 430 kts 318°
2026-04-24 09:39 2.42672 99.61756 20474 ft 428 kts 318°
2026-04-24 09:39 2.44904 99.59771 20160 ft 425 kts 318°
2026-04-24 09:39 2.47093 99.57826 19852 ft 423 kts 318°
2026-04-24 09:39 2.49292 99.55870 19544 ft 421 kts 318°
2026-04-24 09:40 2.51500 99.53907 19233 ft 419 kts 318°
2026-04-24 09:40 2.53675 99.51974 18928 ft 417 kts 318°
2026-04-24 09:40 2.55843 99.50047 18623 ft 416 kts 318°
2026-04-24 09:40 2.58031 99.48102 18315 ft 414 kts 318°
2026-04-24 09:41 2.60277 99.46105 18000 ft 413 kts 318°
2026-04-24 09:41 2.62424 99.44196 17699 ft 412 kts 318°
2026-04-24 09:41 2.64533 99.42321 17402 ft 410 kts 318°
2026-04-24 09:41 2.66485 99.40585 17128 ft 409 kts 318°
2026-04-24 09:42 2.68811 99.38516 16823 ft 407 kts 318°
2026-04-24 09:42 2.71006 99.36563 16763 ft 406 kts 318°
2026-04-24 09:42 2.73164 99.34644 16458 ft 421 kts 318°
2026-04-24 09:42 2.75348 99.32702 16157 ft 418 kts 318°
2026-04-24 09:43 2.77511 99.30779 15851 ft 415 kts 319°
2026-04-24 09:43 2.79666 99.28861 15548 ft 415 kts 319°
2026-04-24 09:43 2.81821 99.26944 15245 ft 413 kts 319°
2026-04-24 09:43 2.83967 99.25034 14942 ft 412 kts 319°
2026-04-24 09:44 2.86136 99.23103 14638 ft 411 kts 319°
2026-04-24 09:44 2.88265 99.21208 14338 ft 409 kts 319°
2026-04-24 09:44 2.90332 99.19368 14048 ft 407 kts 319°
2026-04-24 09:44 2.92500 99.17438 13744 ft 404 kts 319°
2026-04-24 09:45 2.94437 99.15714 13470 ft 402 kts 319°
2026-04-24 09:45 2.96777 99.13633 13142 ft 400 kts 319°
2026-04-24 09:45 2.98761 99.11847 12805 ft 399 kts 317°
2026-04-24 09:45 3.00792 99.09898 12431 ft 396 kts 316°
2026-04-24 09:46 3.02721 99.07955 12065 ft 391 kts 315°
2026-04-24 09:46 3.04659 99.05971 11689 ft 385 kts 315°
2026-04-24 09:46 3.06535 99.04066 11328 ft 380 kts 315°
2026-04-24 09:46 3.08350 99.02242 10977 ft 375 kts 315°
2026-04-24 09:47 3.10207 99.00387 10621 ft 369 kts 315°
2026-04-24 09:47 3.12054 98.98545 10267 ft 365 kts 315°
2026-04-24 09:47 3.13832 98.96773 9927 ft 360 kts 315°
2026-04-24 09:47 3.15536 98.95076 9791 ft 349 kts 315°
2026-04-24 09:48 3.17266 98.93352 9467 ft 345 kts 315°
2026-04-24 09:48 3.18935 98.91689 9143 ft 342 kts 315°
2026-04-24 09:48 3.20657 98.89975 8812 ft 338 kts 315°
2026-04-24 09:48 3.22316 98.88322 8492 ft 334 kts 315°
2026-04-24 09:49 3.23928 98.86716 8180 ft 331 kts 315°
2026-04-24 09:49 3.25576 98.85074 7865 ft 327 kts 315°
2026-04-24 09:49 3.27182 98.83475 7555 ft 324 kts 315°
2026-04-24 09:49 3.28770 98.81894 7250 ft 321 kts 315°
2026-04-24 09:50 3.30345 98.80324 6948 ft 317 kts 315°
2026-04-24 09:50 3.31844 98.78833 6655 ft 312 kts 316°
2026-04-24 09:50 3.33407 98.77337 6353 ft 289 kts 317°
2026-04-24 09:50 3.34832 98.75996 5947 ft 274 kts 317°
2026-04-24 09:51 3.36241 98.74664 5664 ft 273 kts 317°
2026-04-24 09:51 3.37166 98.73784 5472 ft 267 kts 316°
2026-04-24 09:51 3.38498 98.72515 5208 ft 248 kts 316°
2026-04-24 09:51 3.39811 98.71262 4955 ft 231 kts 316°
2026-04-24 09:52 3.41062 98.70069 4732 ft 223 kts 316°
2026-04-24 09:52 3.42235 98.69038 4464 ft 221 kts 327°
2026-04-24 09:52 3.43675 98.68562 4047 ft 217 kts 359°
2026-04-24 09:52 3.45145 98.68890 3691 ft 220 kts 23°
2026-04-24 09:53 3.46451 98.69655 3493 ft 213 kts 35°
2026-04-24 09:53 3.47575 98.70628 3320 ft 204 kts 46°
2026-04-24 09:53 3.48510 98.71660 3176 ft 194 kts 48°
2026-04-24 09:53 3.49365 98.72652 3016 ft 187 kts 50°
2026-04-24 09:54 3.50212 98.73665 2876 ft 196 kts 49°
2026-04-24 09:54 3.50869 98.74369 2783 ft 203 kts 46°
2026-04-24 09:54 3.52162 98.75628 2557 ft 185 kts 44°
2026-04-24 09:54 3.53052 98.76484 2375 ft 172 kts 44°
2026-04-24 09:55 3.53913 98.77315 2246 ft 173 kts 43°
2026-04-24 09:55 3.54785 98.78158 2093 ft 165 kts 42°
2026-04-24 09:55 3.55322 98.78678 1976 ft 158 kts 41°
2026-04-24 09:55 3.56111 98.79448 1737 ft 156 kts 43°
2026-04-24 09:56 3.56910 98.80239 1676 ft 172 kts 44°
2026-04-24 09:56 3.57811 98.81132 1753 ft 173 kts 44°
2026-04-24 09:56 3.58619 98.81935 1551 ft 159 kts 45°
2026-04-24 09:56 3.59382 98.82705 1124 ft 151 kts 46°
2026-04-24 09:57 3.60124 98.83453 804 ft 153 kts 44°
2026-04-24 09:57 3.60856 98.84199 601 ft 143 kts 42°
2026-04-24 09:57 3.61556 98.84891 376 ft 137 kts 42°
2026-04-24 09:57 3.62328 98.85599 141 ft 137 kts 44°
2026-04-24 09:58 3.63035 98.86301 42 ft 126 kts 45°
2026-04-24 09:58 3.63560 98.86817 39 ft 80 kts 45°
2026-04-24 09:58 3.63861 98.87114 39 ft 56 kts 45°
2026-04-24 09:58 3.64091 98.87373 39 ft 27 kts 70°
2026-04-24 09:59 3.64113 98.87492 39 ft 21 kts 80°
2026-04-24 09:59 3.64134 98.87574 39 ft 12 kts 74°
2026-04-24 09:59 3.64169 98.87688 39 ft 12 kts 59°
2026-04-24 09:59 3.64210 98.87701 39 ft 4 kts
2026-04-24 10:00 3.64239 98.87728 39 ft 10 kts 53°
2026-04-24 10:00 3.64309 98.87821 39 ft 18 kts 48°
2026-04-24 10:00 3.64366 98.87878 39 ft 11 kts 44°
2026-04-24 10:00 3.64419 98.87931 39 ft 11 kts 51°
2026-04-24 10:01 3.64395 98.88012 39 ft 17 kts 134°
2026-04-24 10:01 3.64314 98.88096 39 ft 15 kts 134°
2026-04-24 10:01 3.64243 98.88165 39 ft 13 kts 136°
2026-04-24 10:01 3.64196 98.88200 39 ft 8 kts 180°
2026-04-24 10:02 3.64123 98.88152 39 ft 19 kts 222°
2026-04-24 10:02 3.64033 98.88062 39 ft 16 kts 226°
2026-04-24 10:02 3.63986 98.88015 39 ft 7 kts 225°
2026-04-24 10:02 3.63962 98.87991 39 ft 8 kts 224°
2026-04-24 10:03 3.63945 98.87974 39 ft 7 kts 224°
2026-04-24 10:03 3.63931 98.87931 39 ft 5 kts 293°
2026-04-24 10:03 3.63948 98.87902 39 ft 5 kts 298°
2026-04-24 10:03 3.63948 98.87871 39 ft 3 kts 240°
2026-04-24 10:04 3.63926 98.87849 39 ft 5 kts 224°
2026-04-24 10:04 3.63917 98.87840 39 ft 0 kts 225°